Showing default

LEMUR 2 ANDIS, 42838

Orbit data source: Space-Track

LEMUR 2 ANDIS, 42838 is a payload satellite owned by Spire (US) in SSO that was launched on Fri, 14 Jul 2017 UTC via a SOYUZ-2-1A launch vehicle from the Tyuratam Missile And Space Complex (TTMTR). Payload-class satellites include a variety of spacecraft equipped with specific instruments for various scientific and technological missions. These include communications satellites like Starlink; space stations such as the ISS; scientific satellites like the Hubble; Earth observation satellites from companies like Planet Labs, Umbra, and HawkEye 360; GPS; miniature CubeSats for education and research; and military/defense satellites.

Loading next visibility...
Identifier
42838, 2017-042P
Orbit
SSO
Country
Flag of USUS
Related business
Manufacturer
Spire/Glasgow
Mission
Operational Commercial Com/MetRO
Bus & Motor
CUBESAT 3U, Unknown motor
Mass
4 kg wet, 4 kg dry
Launch date (UTC)
2017-07-14 (9 years ago)
Launch vehicle
SOYUZ-2-1A
Launch site
Tyuratam Missile And Space Complex (TTMTR)
Object type
Payload
Rocket body
Debris
Shape & HBR
Box, 0.4 m
Radar Cross Section
0.093 m², Medium (>0.1 m² and < 1m²)

Expand to show TLE details & history
Last TLE update: 1 day ago

TLE from 1 day ago
0 LEMUR 2 ANDIS
1 42838U 17042P   26236.44863615  .00022106  00000-0  60323-3 0  9993
2 42838  97.3694  57.3205 0009216 116.1733 244.0460 15.37406895498938
Epoch: 2026-08-24T10:46Z
TLE epoch observation values (Epoch: 2026-08-24T10:46:02.163Z)
Latitude
-0.00006°
Longitude
-76.91869°
Altitude
459.657 km
Speed
7.635 km/s
True Right ascension
03h 49m 16s
True Declination
0° 00' 00"
Sunlit
Object was in daylight at epoch
Visualization orbit readout
Latitude
Unknown
Longitude
Unknown
Altitude
Unknown
Speed
Unknown
Apparent Right ascension
Unknown
Apparent Declination
Unknown
Sunlit
N/A
Visualization observer readout
Local Sidereal Time
01:56:22
Azimuth
Unknown
Elevation
Unknown
Doppler factor
Unknown
Orbital elements
Apogee altitude
457.015 km
Perigee altitude
444.428 km
Semi-major axis
6,828.859 km
Eccentricity
0.00092
Inclination
97.3694°
RAAN
57.3205°
Arg. of periapsis
116.1733°
True anomaly
243.95109°
Mean anomaly
244.046°
Eccentric anomaly
243.99854°
Mean motion
3.8461 °/min
Orbital period
93.6 mins
BSTAR
0.00060323
Loading maneuver chart data...
Computing Atmospheric mass density...
Loading historical data...
Loading historical data...
Loading historical data...
Loading historical data...
Loading historical data...
Loading historical data...
Loading historical data...

Documentation

Showing up to 5 results
|